Location: Unspecified
(0.0000°N, 0.0000°E)
Time: 18:25:27
(UTC+00:00)

STARLINK 1046 - Pass Details

Date: 24 January 2020
Orbit: 548 x 551 km, 53.0° (Epoch: 17 January)

Event Time Altitude Azimuth Distance (km) Brightness Sun altitude
Exits shadow 04:13:58 11° 38° (NE) 1,751 6.3 -27.7°
Drops below altitude 10° 04:14:07 10° 38° (NE) 1,807 6.4 -27.6°
Sets 04:16:20 0° 36° (NE) 2,697 7.3 -27.1°
